This demonstration page uses our WeatherBlox Daily Observations layout. Learn more.

Left ArrowRight Arrow

34.16533, -84.80231

Hourly Observations for July 7, 2016

Temp ( °F °C ) Dew Point ( °F °C ) Humidity (%) Winds ( mph kmh ) Pressure ( in mb ) Visibility ( mi km ) Precip ( " mm )
12:53 am 00:53 Clear 73 22.8 68 20 84 84 Calm 30.02 1017 10 16 0.00 0.00
1:53 am 01:53 Clear 72 22.2 69 20.6 91 91 SSW 3 6 30.00 1016 10 16 0.00 0.00
2:53 am 02:53 Clear 72 22.2 70 21.1 94 94 Calm 29.98 1015 10 16 0.00 0.00
3:53 am 03:53 Clear 70 21.1 69 20.6 97 97 Calm 29.98 1015 9 14 0.00 0.00
4:53 am 04:53 Clear 69 20.6 68 20 96 96 Calm 30.00 1016 9 14 0.00 0.00
5:53 am 05:53 Clear 71 21.7 69 20.6 94 94 Calm 30.00 1016 10 16 0.00 0.00
6:53 am 06:53 Sunny 70 21.1 69 20.6 97 97 Calm 30.03 1017 9 14 0.00 0.00
7:53 am 07:53 Mostly Sunny 74 23.3 70 21.1 88 88 Calm 30.04 1017 10 16 0.00 0.00
8:53 am 08:53 Sunny 77 25 71 21.7 82 82 Calm 30.04 1017 10 16 0.00 0.00
9:53 am 09:53 Sunny 80 26.7 73 22.8 79 79 VRB 7 11 30.04 1017 10 16 0.00 0.00
10:21 am 10:21 Mostly Cloudy 81 27.2 73 22.8 77 77 VRB 3 6 30.03 1017 10 16 0.00 0.00
10:53 am 10:53 Mostly Cloudy 83 28.3 73 22.8 72 72 VRB 6 9 30.03 1017 10 16 0.00 0.00
11:11 am 11:11 Partly Cloudy 83 28.3 73 22.8 72 72 VRB 5 7 30.00 1016 10 16 0.00 0.00
11:53 am 11:53 Mostly Sunny 85 29.4 73 22.8 68 68 VRB 6 9 30.00 1016 10 16 0.00 0.00
12:53 pm 12:53 Partly Cloudy 88 31.1 72 22.2 59 59 VRB 6 9 30.00 1016 10 16 0.00 0.00
1:53 pm 13:53 Mostly Sunny 89 31.7 70 21.1 53 53 SSW 8 13 29.98 1015 10 16 0.00 0.00
2:53 pm 14:53 Sunny 91 32.8 69 20.6 49 49 VRB 6 9 29.98 1015 10 16 0.00 0.00
3:53 pm 15:53 Sunny 92 33.3 69 20.6 47 47 VRB 6 9 29.98 1015 10 16 0.00 0.00
4:53 pm 16:53 Partly Cloudy 93 33.9 71 21.7 49 49 VRB 5 7 29.97 1015 10 16 0.00 0.00
5:53 pm 17:53 Sunny 92 33.3 69 20.6 47 47 VRB 5 7 29.97 1015 10 16 0.00 0.00
6:53 pm 18:53 Sunny 91 32.8 65 18.3 42 42 VRB 6 9 29.97 1015 10 16 0.00 0.00
7:53 pm 19:53 Sunny 89 31.7 66 18.9 47 47 Calm 29.98 1015 10 16 0.00 0.00
8:53 pm 20:53 Sunny 82 27.8 70 21.1 67 67 S 3 6 29.96 1015 10 16 0.00 0.00
9:53 pm 21:53 Clear 81 27.2 68 20 65 65 S 6 9 29.93 1014 10 16 0.00 0.00
10:53 pm 22:53 Clear 78 25.6 69 20.6 74 74 Calm 29.98 1015 10 16 0.00 0.00
11:53 pm 23:53 Clear 75 23.9 70 21.1 84 84 Calm 29.99 1016 10 16 0.00 0.00

Powered by AerisWeather